Time,TemperatureF,DewpointF,PressureIn,WindDirection,WindDirectionDegrees,WindSpeedMPH,WindSpeedGustMPH,Humidity,HourlyPrecipIn,Conditions,Clouds,dailyrainin,SoftwareType,DateUTC
2013-06-09 00:01:00,57.4,54.2,29.99,NW,316,0.0,0.0,89,0.00,,,0.00,Wunderground v.1.15,2013-06-09 04:01:00,
2013-06-09 00:02:00,57.3,54.1,29.99,NW,315,0.0,0.0,89,0.00,,,0.00,Wunderground v.1.15,2013-06-09 04:02:00,
2013-06-09 00:04:00,57.3,54.1,29.99,NW,315,0.0,0.0,89,0.00,,,0.00,Wunderground v.1.15,2013-06-09 04:04:00,
2013-06-09 00:06:00,57.2,54.0,29.99,NW,315,0.0,0.0,89,0.00,,,0.00,Wunderground v.1.15,2013-06-09 04:06:00,
2013-06-09 00:11:00,57.1,53.9,29.99,NW,315,0.0,0.0,89,0.00,,,0.00,Wunderground v.1.15,2013-06-09 04:11:00,
2013-06-09 00:17:00,56.9,53.7,29.99,NW,315,0.0,0.0,89,0.00,,,0.00,Wunderground v.1.15,2013-06-09 04:17:00,
2013-06-09 00:23:00,56.7,53.5,29.99,NW,315,0.0,0.0,89,0.00,,,0.00,Wunderground v.1.15,2013-06-09 04:23:00,
2013-06-09 00:29:00,56.6,53.4,30.00,NW,315,0.0,0.0,89,0.00,,,0.00,Wunderground v.1.15,2013-06-09 04:29:00,
2013-06-09 00:36:00,56.4,53.2,30.00,NW,315,0.0,0.0,89,0.00,,,0.00,Wunderground v.1.15,2013-06-09 04:36:00,
2013-06-09 00:41:00,56.4,53.2,30.00,NW,315,0.0,0.0,89,0.00,,,0.00,Wunderground v.1.15,2013-06-09 04:41:00,
2013-06-09 00:46:00,56.3,53.1,30.00,NW,315,0.0,0.0,89,0.00,,,0.00,Wunderground v.1.15,2013-06-09 04:46:00,
2013-06-09 00:52:00,56.2,53.0,30.00,NW,315,0.0,0.0,89,0.00,,,0.00,Wunderground v.1.15,2013-06-09 04:52:00,
2013-06-09 00:58:00,56.0,52.8,30.00,NW,315,0.0,0.0,89,0.00,,,0.00,Wunderground v.1.15,2013-06-09 04:58:00,
2013-06-09 01:03:00,55.9,52.7,30.00,NW,315,0.0,0.0,89,0.00,,,0.00,Wunderground v.1.15,2013-06-09 05:03:00,
2013-06-09 01:09:00,55.8,52.6,30.00,NW,315,0.0,0.0,89,0.00,,,0.00,Wunderground v.1.15,2013-06-09 05:09:00,
2013-06-09 01:14:00,55.7,52.5,30.01,NW,315,0.0,0.0,89,0.00,,,0.00,Wunderground v.1.15,2013-06-09 05:14:00,
2013-06-09 01:22:00,55.5,52.3,30.01,NW,315,0.0,0.0,89,0.00,,,0.00,Wunderground v.1.15,2013-06-09 05:22:00,
2013-06-09 01:27:00,55.4,52.2,30.01,NW,315,0.0,0.0,89,0.00,,,0.00,Wunderground v.1.15,2013-06-09 05:27:00,
2013-06-09 01:33:00,55.3,52.1,30.01,NW,315,0.0,0.0,89,0.00,,,0.00,Wunderground v.1.15,2013-06-09 05:33:00,
2013-06-09 01:39:00,55.1,51.9,30.01,NW,315,0.0,0.0,89,0.00,,,0.00,Wunderground v.1.15,2013-06-09 05:39:00,
2013-06-09 01:46:00,55.0,51.8,30.02,NW,316,0.0,0.0,89,0.00,,,0.00,Wunderground v.1.15,2013-06-09 05:46:00,
2013-06-09 01:52:00,55.0,51.8,30.01,NW,315,0.0,0.0,89,0.00,,,0.00,Wunderground v.1.15,2013-06-09 05:52:00,
2013-06-09 01:57:00,54.9,51.7,30.02,NW,316,0.0,0.0,89,0.00,,,0.00,Wunderground v.1.15,2013-06-09 05:57:00,
2013-06-09 02:02:00,54.9,51.7,30.02,NW,315,0.0,0.0,89,0.00,,,0.00,Wunderground v.1.15,2013-06-09 06:02:00,
2013-06-09 02:08:00,54.8,51.6,30.02,NW,315,0.0,0.0,89,0.00,,,0.00,Wunderground v.1.15,2013-06-09 06:08:00,
2013-06-09 02:14:00,54.8,51.6,30.02,NW,315,0.0,0.0,89,0.00,,,0.00,Wunderground v.1.15,2013-06-09 06:14:00,
2013-06-09 02:19:00,54.7,51.5,30.02,NW,315,0.0,0.0,89,0.00,,,0.00,Wunderground v.1.15,2013-06-09 06:19:00,
2013-06-09 02:26:00,54.6,51.4,30.02,NW,315,0.0,0.0,89,0.00,,,0.00,Wunderground v.1.15,2013-06-09 06:26:00,
2013-06-09 02:32:00,54.6,51.4,30.02,NW,315,0.0,0.0,89,0.00,,,0.00,Wunderground v.1.15,2013-06-09 06:32:00,
2013-06-09 02:37:00,54.5,51.3,30.01,NW,315,0.0,0.0,89,0.00,,,0.00,Wunderground v.1.15,2013-06-09 06:37:00,
2013-06-09 02:43:00,54.5,51.3,30.02,NW,315,0.0,0.0,89,0.00,,,0.00,Wunderground v.1.15,2013-06-09 06:43:00,
2013-06-09 02:48:00,54.5,51.3,30.02,NW,315,0.0,0.0,89,0.00,,,0.00,Wunderground v.1.15,2013-06-09 06:48:00,
2013-06-09 02:54:00,54.5,51.3,30.01,NW,315,0.0,0.0,89,0.00,,,0.00,Wunderground v.1.15,2013-06-09 06:54:00,
2013-06-09 03:02:00,54.4,51.2,30.01,NW,315,0.0,0.0,89,0.00,,,0.00,Wunderground v.1.15,2013-06-09 07:02:00,
2013-06-09 03:07:00,54.3,51.1,30.02,NW,315,0.0,0.0,89,0.00,,,0.00,Wunderground v.1.15,2013-06-09 07:07:00,
2013-06-09 03:13:00,54.6,51.4,30.02,NW,307,0.0,0.0,89,0.00,,,0.00,Wunderground v.1.15,2013-06-09 07:13:00,
2013-06-09 03:18:00,54.9,51.7,30.02,NW,313,0.0,0.0,89,0.00,,,0.00,Wunderground v.1.15,2013-06-09 07:18:00,
2013-06-09 03:24:00,54.9,51.7,30.02,WNW,288,0.0,0.0,89,0.00,,,0.00,Wunderground v.1.15,2013-06-09 07:24:00,
2013-06-09 03:29:00,55.0,51.8,30.02,WNW,288,0.0,0.0,89,0.00,,,0.00,Wunderground v.1.15,2013-06-09 07:29:00,
2013-06-09 03:36:00,55.1,51.9,30.02,WNW,287,0.0,0.0,89,0.00,,,0.00,Wunderground v.1.15,2013-06-09 07:36:00,
2013-06-09 03:42:00,55.1,51.9,30.02,WNW,288,0.0,0.0,89,0.00,,,0.00,Wunderground v.1.15,2013-06-09 07:42:00,
2013-06-09 03:47:00,55.3,52.1,30.02,WNW,300,0.0,0.0,89,0.00,,,0.00,Wunderground v.1.15,2013-06-09 07:47:00,
2013-06-09 03:53:00,55.2,52.0,30.02,NW,315,0.0,0.0,89,0.00,,,0.00,Wunderground v.1.15,2013-06-09 07:53:00,
2013-06-09 03:58:00,55.4,52.2,30.02,WNW,292,0.0,0.0,89,0.00,,,0.00,Wunderground v.1.15,2013-06-09 07:58:00,
2013-06-09 04:04:00,55.5,52.6,30.02,WNW,298,0.0,0.0,90,0.00,,,0.00,Wunderground v.1.15,2013-06-09 08:04:00,
2013-06-09 04:09:00,55.4,52.2,30.03,WNW,298,0.0,0.0,89,0.00,,,0.00,Wunderground v.1.15,2013-06-09 08:09:00,
2013-06-09 04:16:00,55.4,52.2,30.03,WNW,298,0.0,0.0,89,0.00,,,0.00,Wunderground v.1.15,2013-06-09 08:16:00,
2013-06-09 04:21:00,55.3,52.1,30.03,WNW,298,0.0,0.0,89,0.00,,,0.00,Wunderground v.1.15,2013-06-09 08:21:00,
2013-06-09 04:27:00,55.1,51.9,30.03,North,360,0.0,0.0,89,0.00,,,0.00,Wunderground v.1.15,2013-06-09 08:27:00,
2013-06-09 04:33:00,55.2,52.0,30.03,NNW,340,0.0,0.0,89,0.00,,,0.00,Wunderground v.1.15,2013-06-09 08:33:00,
2013-06-09 04:39:00,55.1,51.9,30.03,NNW,340,0.0,0.0,89,0.00,,,0.00,Wunderground v.1.15,2013-06-09 08:39:00,
2013-06-09 04:44:00,55.0,51.8,30.03,NNW,345,0.0,0.0,89,0.00,,,0.00,Wunderground v.1.15,2013-06-09 08:44:00,
2013-06-09 04:51:00,54.8,51.6,30.04,NNW,345,0.0,0.0,89,0.00,,,0.00,Wunderground v.1.15,2013-06-09 08:51:00,
2013-06-09 04:57:00,54.7,51.5,30.04,NNW,345,0.0,0.0,89,0.00,,,0.00,Wunderground v.1.15,2013-06-09 08:57:00,
2013-06-09 05:02:00,54.6,51.4,30.04,NNW,345,0.0,0.0,89,0.00,,,0.00,Wunderground v.1.15,2013-06-09 09:02:00,
2013-06-09 05:08:00,54.5,51.3,30.04,NNW,345,0.0,0.0,89,0.00,,,0.00,Wunderground v.1.15,2013-06-09 09:08:00,
2013-06-09 05:14:00,54.4,51.2,30.04,NNW,345,0.0,0.0,89,0.00,,,0.00,Wunderground v.1.15,2013-06-09 09:14:00,
2013-06-09 05:21:00,54.3,51.1,30.05,NNW,345,0.0,0.0,89,0.00,,,0.00,Wunderground v.1.15,2013-06-09 09:21:00,
2013-06-09 05:27:00,54.1,50.9,30.05,NNW,345,0.0,0.0,89,0.00,,,0.00,Wunderground v.1.15,2013-06-09 09:27:00,
2013-06-09 05:32:00,54.1,51.2,30.05,NNW,345,0.0,0.0,90,0.00,,,0.00,Wunderground v.1.15,2013-06-09 09:32:00,
2013-06-09 05:38:00,54.1,50.9,30.05,NNW,345,0.0,0.0,89,0.00,,,0.00,Wunderground v.1.15,2013-06-09 09:38:00,
2013-06-09 05:44:00,54.1,50.9,30.05,NNW,345,0.0,0.0,89,0.00,,,0.00,Wunderground v.1.15,2013-06-09 09:44:00,
2013-06-09 05:49:00,54.2,51.3,30.05,WNW,297,0.0,0.0,90,0.00,,,0.00,Wunderground v.1.15,2013-06-09 09:49:00,
2013-06-09 05:56:00,54.4,51.2,30.05,WNW,289,0.0,0.0,89,0.00,,,0.00,Wunderground v.1.15,2013-06-09 09:56:00,
2013-06-09 06:02:00,54.6,51.4,30.05,WNW,288,0.0,0.0,89,0.00,,,0.00,Wunderground v.1.15,2013-06-09 10:02:00,
2013-06-09 06:07:00,54.9,52.0,30.05,NNW,327,0.0,0.0,90,0.00,,,0.00,Wunderground v.1.15,2013-06-09 10:07:00,
2013-06-09 06:13:00,55.4,52.2,30.05,NNW,331,0.0,0.0,89,0.00,,,0.00,Wunderground v.1.15,2013-06-09 10:13:00,
2013-06-09 06:19:00,55.8,52.9,30.06,NW,323,0.0,0.0,90,0.00,,,0.00,Wunderground v.1.15,2013-06-09 10:19:00,
2013-06-09 06:26:00,56.2,53.0,30.06,WNW,296,0.0,0.0,89,0.00,,,0.00,Wunderground v.1.15,2013-06-09 10:26:00,
2013-06-09 06:32:00,56.5,53.6,30.06,NW,314,0.0,0.0,90,0.00,,,0.00,Wunderground v.1.15,2013-06-09 10:32:00,
2013-06-09 06:37:00,56.9,54.6,30.06,WNW,299,0.0,0.0,92,0.00,,,0.00,Wunderground v.1.15,2013-06-09 10:37:00,
2013-06-09 06:43:00,57.5,54.3,30.07,West,277,0.0,0.0,89,0.00,,,0.00,Wunderground v.1.15,2013-06-09 10:43:00,
2013-06-09 06:49:00,57.9,55.0,30.07,NW,318,0.0,0.0,90,0.00,,,0.00,Wunderground v.1.15,2013-06-09 10:49:00,
2013-06-09 06:56:00,58.5,55.3,30.07,NNW,329,0.0,0.0,89,0.00,,,0.00,Wunderground v.1.15,2013-06-09 10:56:00,
2013-06-09 07:02:00,59.0,55.8,30.07,NNW,329,0.0,0.0,89,0.00,,,0.00,Wunderground v.1.15,2013-06-09 11:02:00,
2013-06-09 07:08:00,59.0,55.4,30.08,NW,306,0.0,0.0,88,0.00,,,0.00,Wunderground v.1.15,2013-06-09 11:08:00,
2013-06-09 07:13:00,59.5,55.9,30.08,WNW,294,0.0,0.0,88,0.00,,,0.00,Wunderground v.1.15,2013-06-09 11:13:00,
2013-06-09 07:18:00,59.8,55.9,30.08,NW,306,0.0,0.0,87,0.00,,,0.00,Wunderground v.1.15,2013-06-09 11:18:00,
2013-06-09 07:23:00,60.0,56.1,30.08,NNE,26,0.0,0.0,87,0.00,,,0.00,Wunderground v.1.15,2013-06-09 11:23:00,
2013-06-09 07:29:00,60.3,56.4,30.08,NW,309,0.0,0.0,87,0.00,,,0.00,Wunderground v.1.15,2013-06-09 11:29:00,
2013-06-09 07:34:00,60.6,56.4,30.08,WNW,292,0.0,0.0,86,0.00,,,0.00,Wunderground v.1.15,2013-06-09 11:34:00,
2013-06-09 07:41:00,61.0,56.8,30.08,WNW,297,0.0,0.0,86,0.00,,,0.00,Wunderground v.1.15,2013-06-09 11:41:00,
2013-06-09 07:46:00,61.3,56.4,30.08,NW,320,0.0,0.0,84,0.00,,,0.00,Wunderground v.1.15,2013-06-09 11:46:00,
2013-06-09 07:52:00,61.9,56.7,30.08,WNW,292,0.0,0.0,83,0.00,,,0.00,Wunderground v.1.15,2013-06-09 11:52:00,
2013-06-09 07:57:00,62.4,57.2,30.08,North,350,0.0,0.0,83,0.00,,,0.00,Wunderground v.1.15,2013-06-09 11:57:00,
2013-06-09 08:03:00,62.8,56.9,30.09,NW,314,0.0,0.0,81,0.00,,,0.00,Wunderground v.1.15,2013-06-09 12:03:00,
2013-06-09 08:08:00,63.1,57.2,30.09,SSW,211,0.0,0.0,81,0.00,,,0.00,Wunderground v.1.15,2013-06-09 12:08:00,
2013-06-09 08:14:00,63.4,57.8,30.09,South,169,0.0,0.0,82,0.00,,,0.00,Wunderground v.1.15,2013-06-09 12:14:00,
2013-06-09 08:21:00,63.8,57.5,30.09,NW,317,0.0,0.0,80,0.00,,,0.00,Wunderground v.1.15,2013-06-09 12:21:00,
2013-06-09 08:27:00,64.1,57.1,30.09,NW,312,0.0,0.0,78,0.00,,,0.00,Wunderground v.1.15,2013-06-09 12:27:00,
2013-06-09 08:33:00,64.5,57.8,30.09,WNW,292,0.0,0.0,79,0.00,,,0.00,Wunderground v.1.15,2013-06-09 12:33:00,
2013-06-09 08:39:00,65.0,57.2,30.09,NE,40,0.0,0.0,76,0.00,,,0.00,Wunderground v.1.15,2013-06-09 12:39:00,
2013-06-09 08:46:00,65.1,57.3,30.09,WNW,296,0.0,0.0,76,0.00,,,0.00,Wunderground v.1.15,2013-06-09 12:46:00,
2013-06-09 08:52:00,65.3,56.8,30.09,WNW,297,0.0,0.0,74,0.00,,,0.00,Wunderground v.1.15,2013-06-09 12:52:00,
2013-06-09 08:57:00,65.4,56.9,30.09,NNW,328,0.0,0.0,74,0.00,,,0.00,Wunderground v.1.15,2013-06-09 12:57:00,
2013-06-09 09:03:00,65.6,57.1,30.09,WSW,246,0.0,0.0,74,0.00,,,0.00,Wunderground v.1.15,2013-06-09 13:03:00,
2013-06-09 09:09:00,65.9,57.0,30.09,WNW,298,0.0,0.0,73,0.00,,,0.00,Wunderground v.1.15,2013-06-09 13:09:00,
2013-06-09 09:14:00,66.2,56.9,30.09,WNW,298,0.0,0.0,72,0.00,,,0.00,Wunderground v.1.15,2013-06-09 13:14:00,
2013-06-09 09:19:00,66.5,56.8,30.09,NNW,336,0.0,0.0,71,0.00,,,0.00,Wunderground v.1.15,2013-06-09 13:19:00,
2013-06-09 09:26:00,66.6,56.5,30.09,NNE,32,0.0,0.0,70,0.00,,,0.00,Wunderground v.1.15,2013-06-09 13:26:00,
2013-06-09 09:31:00,66.9,57.6,30.09,WNW,298,0.0,0.0,72,0.00,,,0.00,Wunderground v.1.15,2013-06-09 13:31:00,
2013-06-09 09:37:00,67.3,56.8,30.09,WNW,292,0.0,0.0,69,0.00,,,0.00,Wunderground v.1.15,2013-06-09 13:37:00,
2013-06-09 09:42:00,67.6,57.9,30.10,WNW,292,0.0,0.0,71,0.00,,,0.00,Wunderground v.1.15,2013-06-09 13:42:00,
2013-06-09 09:48:00,67.9,56.9,30.10,WNW,294,0.0,0.0,68,0.00,,,0.00,Wunderground v.1.15,2013-06-09 13:48:00,
2013-06-09 09:53:00,68.0,57.0,30.10,NNW,342,0.0,0.0,68,0.00,,,0.00,Wunderground v.1.15,2013-06-09 13:53:00,
2013-06-09 09:59:00,68.4,57.8,30.09,North,360,0.0,0.0,69,0.00,,,0.00,Wunderground v.1.15,2013-06-09 13:59:00,
2013-06-09 10:06:00,69.0,57.2,30.09,NNE,16,0.0,0.0,66,0.00,,,0.00,Wunderground v.1.15,2013-06-09 14:06:00,
2013-06-09 10:12:00,69.3,56.6,30.09,West,275,0.0,0.0,64,0.00,,,0.00,Wunderground v.1.15,2013-06-09 14:12:00,
2013-06-09 10:17:00,69.5,56.8,30.09,NW,309,0.0,0.0,64,0.00,,,0.00,Wunderground v.1.15,2013-06-09 14:17:00,
2013-06-09 10:23:00,70.0,57.7,30.09,WNW,298,0.0,0.0,65,0.00,,,0.00,Wunderground v.1.15,2013-06-09 14:23:00,
2013-06-09 10:28:00,70.4,57.2,30.09,NNE,26,0.0,0.0,63,0.00,,,0.00,Wunderground v.1.15,2013-06-09 14:28:00,
2013-06-09 10:34:00,70.6,56.5,30.09,NNE,31,0.0,0.0,61,0.00,,,0.00,Wunderground v.1.15,2013-06-09 14:34:00,
2013-06-09 10:39:00,70.7,58.4,30.09,NNE,28,0.0,0.0,65,0.00,,,0.00,Wunderground v.1.15,2013-06-09 14:39:00,
2013-06-09 10:44:00,71.3,57.2,30.09,SSW,210,0.0,0.0,61,0.00,,,0.00,Wunderground v.1.15,2013-06-09 14:44:00,
2013-06-09 10:51:00,72.0,56.9,30.09,NE,55,0.0,0.0,59,0.00,,,0.00,Wunderground v.1.15,2013-06-09 14:51:00,
2013-06-09 10:56:00,71.9,57.7,30.09,WNW,290,0.0,0.0,61,0.00,,,0.00,Wunderground v.1.15,2013-06-09 14:56:00,
2013-06-09 11:02:00,72.5,57.4,30.09,NNW,340,0.0,0.0,59,0.00,,,0.00,Wunderground v.1.15,2013-06-09 15:02:00,
2013-06-09 11:08:00,72.9,57.7,30.09,NW,322,0.0,0.0,59,0.00,,,0.00,Wunderground v.1.15,2013-06-09 15:08:00,
2013-06-09 11:14:00,73.1,57.0,30.08,East,82,0.0,0.0,57,0.00,,,0.00,Wunderground v.1.15,2013-06-09 15:14:00,
2013-06-09 11:21:00,73.7,58.0,30.08,NNW,333,0.0,0.0,58,0.00,,,0.00,Wunderground v.1.15,2013-06-09 15:21:00,
2013-06-09 11:26:00,73.6,56.9,30.09,North,355,0.0,0.0,56,0.00,,,0.00,Wunderground v.1.15,2013-06-09 15:26:00,
2013-06-09 11:32:00,73.8,58.6,30.09,West,261,0.0,0.0,59,0.00,,,0.00,Wunderground v.1.15,2013-06-09 15:32:00,
2013-06-09 11:38:00,74.0,56.8,30.08,NW,312,0.0,0.0,55,0.00,,,0.00,Wunderground v.1.15,2013-06-09 15:38:00,
2013-06-09 11:43:00,74.2,58.0,30.08,SW,223,0.0,0.0,57,0.00,,,0.00,Wunderground v.1.15,2013-06-09 15:43:00,
2013-06-09 11:49:00,74.2,57.0,30.08,West,279,0.0,0.0,55,0.00,,,0.00,Wunderground v.1.15,2013-06-09 15:49:00,
2013-06-09 11:54:00,74.5,57.8,30.08,NNE,22,0.0,0.0,56,0.00,,,0.00,Wunderground v.1.15,2013-06-09 15:54:00,
2013-06-09 12:02:00,74.4,57.2,30.08,WNW,300,0.0,0.0,55,0.00,,,0.00,Wunderground v.1.15,2013-06-09 16:02:00,
2013-06-09 12:07:00,74.5,57.8,30.08,West,277,0.0,0.0,56,0.00,,,0.00,Wunderground v.1.15,2013-06-09 16:07:00,
2013-06-09 12:12:00,74.8,57.0,30.08,NW,304,0.0,0.0,54,0.00,,,0.00,Wunderground v.1.15,2013-06-09 16:12:00,
2013-06-09 12:18:00,75.3,58.5,30.08,WSW,256,0.0,0.0,56,0.00,,,0.00,Wunderground v.1.15,2013-06-09 16:18:00,
2013-06-09 12:24:00,76.2,56.7,30.08,West,281,0.0,0.0,51,0.00,,,0.00,Wunderground v.1.15,2013-06-09 16:24:00,
2013-06-09 12:29:00,76.1,57.7,30.08,NW,326,0.0,0.0,53,0.00,,,0.00,Wunderground v.1.15,2013-06-09 16:29:00,
2013-06-09 12:36:00,76.1,56.7,30.08,NNE,19,0.0,0.0,51,0.00,,,0.00,Wunderground v.1.15,2013-06-09 16:36:00,
2013-06-09 12:42:00,76.0,59.2,30.07,ENE,63,0.0,0.0,56,0.00,,,0.00,Wunderground v.1.15,2013-06-09 16:42:00,
2013-06-09 12:48:00,76.3,59.4,30.07,WNW,300,0.0,0.0,56,0.00,,,0.00,Wunderground v.1.15,2013-06-09 16:48:00,
2013-06-09 12:54:00,76.6,58.2,30.07,WNW,284,0.0,0.0,53,0.00,,,0.00,Wunderground v.1.15,2013-06-09 16:54:00,
2013-06-09 12:59:00,76.9,58.5,30.07,NW,309,0.0,0.0,53,0.00,,,0.00,Wunderground v.1.15,2013-06-09 16:59:00,
2013-06-09 13:06:00,77.5,60.1,30.07,West,278,0.0,0.0,55,0.00,,,0.00,Wunderground v.1.15,2013-06-09 17:06:00,
2013-06-09 13:12:00,78.0,60.0,30.07,ENE,75,0.0,0.0,54,0.00,,,0.00,Wunderground v.1.15,2013-06-09 17:12:00,
2013-06-09 13:18:00,77.8,58.2,30.07,West,279,0.0,0.0,51,0.00,,,0.00,Wunderground v.1.15,2013-06-09 17:18:00,
2013-06-09 13:24:00,78.2,59.7,30.07,West,273,0.0,0.0,53,0.00,,,0.00,Wunderground v.1.15,2013-06-09 17:24:00,
2013-06-09 13:31:00,78.1,57.9,30.07,WNW,300,0.0,0.0,50,0.00,,,0.00,Wunderground v.1.15,2013-06-09 17:31:00,
2013-06-09 13:37:00,77.6,57.5,30.07,NE,40,0.0,0.0,50,0.00,,,0.00,Wunderground v.1.15,2013-06-09 17:37:00,
2013-06-09 13:43:00,77.2,58.2,30.07,North,11,0.0,0.0,52,0.00,,,0.00,Wunderground v.1.15,2013-06-09 17:43:00,
2013-06-09 13:49:00,76.9,59.0,30.07,NNW,330,0.0,0.0,54,0.00,,,0.00,Wunderground v.1.15,2013-06-09 17:49:00,
2013-06-09 13:56:00,77.1,58.1,30.07,NNW,331,0.0,0.0,52,0.00,,,0.00,Wunderground v.1.15,2013-06-09 17:56:00,
2013-06-09 14:01:00,77.3,61.4,30.06,WNW,295,0.0,0.0,58,0.00,,,0.00,Wunderground v.1.15,2013-06-09 18:01:00,
2013-06-09 14:06:00,78.0,58.9,30.06,WNW,283,0.0,0.0,52,0.00,,,0.00,Wunderground v.1.15,2013-06-09 18:06:00,
2013-06-09 14:12:00,78.0,58.9,30.07,North,355,0.0,0.0,52,0.00,,,0.00,Wunderground v.1.15,2013-06-09 18:12:00,
2013-06-09 14:17:00,77.7,59.2,30.06,NNW,330,0.0,0.0,53,0.00,,,0.00,Wunderground v.1.15,2013-06-09 18:17:00,
2013-06-09 14:23:00,77.7,57.6,30.06,NNW,348,0.0,0.0,50,0.00,,,0.00,Wunderground v.1.15,2013-06-09 18:23:00,
2013-06-09 14:28:00,77.1,57.6,30.06,North,5,0.0,0.0,51,0.00,,,0.00,Wunderground v.1.15,2013-06-09 18:28:00,
2013-06-09 14:34:00,77.5,59.5,30.06,WNW,303,0.0,0.0,54,0.00,,,0.00,Wunderground v.1.15,2013-06-09 18:34:00,
2013-06-09 14:41:00,77.6,58.6,30.06,NW,314,0.0,0.0,52,0.00,,,0.00,Wunderground v.1.15,2013-06-09 18:41:00,
2013-06-09 14:47:00,77.6,59.1,30.06,West,275,0.0,0.0,53,0.00,,,0.00,Wunderground v.1.15,2013-06-09 18:47:00,
2013-06-09 14:53:00,77.8,59.3,30.06,WNW,298,0.0,0.0,53,0.00,,,0.00,Wunderground v.1.15,2013-06-09 18:53:00,
2013-06-09 14:59:00,78.0,58.9,30.06,NW,325,0.0,0.0,52,0.00,,,0.00,Wunderground v.1.15,2013-06-09 18:59:00,
2013-06-09 15:06:00,78.6,60.0,30.06,NW,308,0.0,0.0,53,0.00,,,0.00,Wunderground v.1.15,2013-06-09 19:06:00,
2013-06-09 15:12:00,78.5,59.9,30.07,NW,323,0.0,0.0,53,0.00,,,0.00,Wunderground v.1.15,2013-06-09 19:12:00,
2013-06-09 15:18:00,77.8,59.3,30.06,NW,313,0.0,0.0,53,0.00,,,0.00,Wunderground v.1.15,2013-06-09 19:18:00,
2013-06-09 15:24:00,77.6,59.1,30.06,SE,137,0.0,0.0,53,0.00,,,0.00,Wunderground v.1.15,2013-06-09 19:24:00,
2013-06-09 15:29:00,78.1,60.1,30.06,SW,217,0.0,0.0,54,0.00,,,0.00,Wunderground v.1.15,2013-06-09 19:29:00,
2013-06-09 15:36:00,79.0,61.5,30.06,SW,227,0.0,0.0,55,0.00,,,0.00,Wunderground v.1.15,2013-06-09 19:36:00,
2013-06-09 15:41:00,78.7,60.7,30.06,WSW,246,0.0,0.0,54,0.00,,,0.00,Wunderground v.1.15,2013-06-09 19:41:00,
2013-06-09 15:47:00,78.7,61.7,30.06,NW,320,0.0,0.0,56,0.00,,,0.00,Wunderground v.1.15,2013-06-09 19:47:00,
2013-06-09 15:52:00,78.7,60.1,30.06,WNW,294,0.0,0.0,53,0.00,,,0.00,Wunderground v.1.15,2013-06-09 19:52:00,
2013-06-09 15:58:00,77.7,60.2,30.06,NW,306,0.0,0.0,55,0.00,,,0.00,Wunderground v.1.15,2013-06-09 19:58:00,
2013-06-09 16:04:00,77.3,60.4,30.06,WNW,297,0.0,0.0,56,0.00,,,0.00,Wunderground v.1.15,2013-06-09 20:04:00,
2013-06-09 16:09:00,77.3,59.4,30.06,NNE,14,0.0,0.0,54,0.00,,,0.00,Wunderground v.1.15,2013-06-09 20:09:00,
2013-06-09 16:16:00,76.8,59.9,30.06,WNW,286,0.0,0.0,56,0.00,,,0.00,Wunderground v.1.15,2013-06-09 20:16:00,
2013-06-09 16:22:00,76.4,61.0,30.06,WNW,301,0.0,0.0,59,0.00,,,0.00,Wunderground v.1.15,2013-06-09 20:22:00,
2013-06-09 16:28:00,75.7,59.9,30.07,WNW,286,0.0,0.0,58,0.00,,,0.00,Wunderground v.1.15,2013-06-09 20:28:00,
2013-06-09 16:33:00,75.5,59.2,30.07,SW,232,0.0,0.0,57,0.00,,,0.00,Wunderground v.1.15,2013-06-09 20:33:00,
2013-06-09 16:39:00,76.2,59.9,30.06,NNE,22,0.0,0.0,57,0.00,,,0.00,Wunderground v.1.15,2013-06-09 20:39:00,
2013-06-09 16:46:00,77.2,61.3,30.06,NW,322,0.0,0.0,58,0.00,,,0.00,Wunderground v.1.15,2013-06-09 20:46:00,
2013-06-09 16:52:00,77.8,59.8,30.06,WNW,291,0.0,0.0,54,0.00,,,0.00,Wunderground v.1.15,2013-06-09 20:52:00,
2013-06-09 16:57:00,78.2,61.2,30.06,SW,214,0.0,0.0,56,0.00,,,0.00,Wunderground v.1.15,2013-06-09 20:57:00,
2013-06-09 17:03:00,78.7,60.7,30.06,WNW,298,0.0,0.0,54,0.00,,,0.00,Wunderground v.1.15,2013-06-09 21:03:00,
2013-06-09 17:08:00,78.7,60.1,30.06,WSW,251,0.0,0.0,53,0.00,,,0.00,Wunderground v.1.15,2013-06-09 21:08:00,
2013-06-09 17:14:00,78.2,58.6,30.06,SE,133,0.0,0.0,51,0.00,,,0.00,Wunderground v.1.15,2013-06-09 21:14:00,
2013-06-09 17:19:00,77.9,59.9,30.06,ENE,74,0.0,0.0,54,0.00,,,0.00,Wunderground v.1.15,2013-06-09 21:19:00,
2013-06-09 17:24:00,77.6,58.6,30.06,NE,38,0.0,0.0,52,0.00,,,0.00,Wunderground v.1.15,2013-06-09 21:24:00,
2013-06-09 17:31:00,77.4,58.9,30.06,NNW,330,0.0,0.0,53,0.00,,,0.00,Wunderground v.1.15,2013-06-09 21:31:00,
2013-06-09 17:36:00,77.6,59.6,30.06,West,263,0.0,0.0,54,0.00,,,0.00,Wunderground v.1.15,2013-06-09 21:36:00,
2013-06-09 17:42:00,77.9,58.9,30.06,NE,49,0.0,0.0,52,0.00,,,0.00,Wunderground v.1.15,2013-06-09 21:42:00,
2013-06-09 17:48:00,77.5,58.5,30.06,NNE,20,0.0,0.0,52,0.00,,,0.00,Wunderground v.1.15,2013-06-09 21:48:00,
2013-06-09 17:54:00,77.2,59.8,30.06,West,280,0.0,0.0,55,0.00,,,0.00,Wunderground v.1.15,2013-06-09 21:54:00,
2013-06-09 18:01:00,77.2,58.7,30.06,WNW,286,0.0,0.0,53,0.00,,,0.00,Wunderground v.1.15,2013-06-09 22:01:00,
2013-06-09 18:06:00,77.1,59.2,30.07,WNW,296,0.0,0.0,54,0.00,,,0.00,Wunderground v.1.15,2013-06-09 22:06:00,
2013-06-09 18:12:00,76.8,57.8,30.07,West,277,0.0,0.0,52,0.00,,,0.00,Wunderground v.1.15,2013-06-09 22:12:00,
2013-06-09 18:18:00,76.6,57.7,30.07,NNE,18,0.0,0.0,52,0.00,,,0.00,Wunderground v.1.15,2013-06-09 22:18:00,
2013-06-09 18:24:00,76.4,58.5,30.07,WNW,286,0.0,0.0,54,0.00,,,0.00,Wunderground v.1.15,2013-06-09 22:24:00,
2013-06-09 18:31:00,76.4,60.0,30.07,SW,228,0.0,0.0,57,0.00,,,0.00,Wunderground v.1.15,2013-06-09 22:31:00,
2013-06-09 18:37:00,76.1,58.2,30.07,NW,319,0.0,0.0,54,0.00,,,0.00,Wunderground v.1.15,2013-06-09 22:37:00,
2013-06-09 18:43:00,75.8,58.0,30.07,SSW,213,0.0,0.0,54,0.00,,,0.00,Wunderground v.1.15,2013-06-09 22:43:00,
2013-06-09 18:49:00,75.5,57.7,30.07,NW,321,0.0,0.0,54,0.00,,,0.00,Wunderground v.1.15,2013-06-09 22:49:00,
2013-06-09 18:56:00,75.2,57.4,30.07,WNW,290,0.0,0.0,54,0.00,,,0.00,Wunderground v.1.15,2013-06-09 22:56:00,
2013-06-09 19:01:00,75.0,57.2,30.08,West,268,0.0,0.0,54,0.00,,,0.00,Wunderground v.1.15,2013-06-09 23:01:00,
2013-06-09 19:06:00,74.8,57.5,30.08,WNW,299,0.0,0.0,55,0.00,,,0.00,Wunderground v.1.15,2013-06-09 23:06:00,
2013-06-09 19:12:00,74.6,57.4,30.08,WNW,296,0.0,0.0,55,0.00,,,0.00,Wunderground v.1.15,2013-06-09 23:12:00,
2013-06-09 19:18:00,74.2,58.0,30.08,NW,313,0.0,0.0,57,0.00,,,0.00,Wunderground v.1.15,2013-06-09 23:18:00,
2013-06-09 19:24:00,73.8,57.6,30.08,NW,312,0.0,0.0,57,0.00,,,0.00,Wunderground v.1.15,2013-06-09 23:24:00,
2013-06-09 19:32:00,73.1,57.4,30.08,NW,319,0.0,0.0,58,0.00,,,0.00,Wunderground v.1.15,2013-06-09 23:32:00,
2013-06-09 19:37:00,72.8,58.1,30.09,WSW,244,0.0,0.0,60,0.00,,,0.00,Wunderground v.1.15,2013-06-09 23:37:00,
2013-06-09 19:43:00,72.4,58.2,30.09,WSW,244,0.0,0.0,61,0.00,,,0.00,Wunderground v.1.15,2013-06-09 23:43:00,
2013-06-09 19:49:00,71.7,58.4,30.09,WSW,244,0.0,0.0,63,0.00,,,0.00,Wunderground v.1.15,2013-06-09 23:49:00,
2013-06-09 19:56:00,71.1,58.3,30.09,WSW,244,0.0,0.0,64,0.00,,,0.00,Wunderground v.1.15,2013-06-09 23:56:00,
2013-06-09 20:02:00,70.3,58.8,30.09,WSW,244,0.0,0.0,67,0.00,,,0.00,Wunderground v.1.15,2013-06-10 00:02:00,
2013-06-09 20:07:00,69.8,58.3,30.09,WSW,244,0.0,0.0,67,0.00,,,0.00,Wunderground v.1.15,2013-06-10 00:07:00,
2013-06-09 20:13:00,69.3,59.1,30.09,WSW,244,0.0,0.0,70,0.00,,,0.00,Wunderground v.1.15,2013-06-10 00:13:00,
2013-06-09 20:19:00,68.7,59.3,30.09,WSW,244,0.0,0.0,72,0.00,,,0.00,Wunderground v.1.15,2013-06-10 00:19:00,
2013-06-09 20:26:00,68.0,58.6,30.09,WSW,244,0.0,0.0,72,0.00,,,0.00,Wunderground v.1.15,2013-06-10 00:26:00,
2013-06-09 20:32:00,67.4,58.8,30.09,WSW,244,0.0,0.0,74,0.00,,,0.00,Wunderground v.1.15,2013-06-10 00:32:00,
2013-06-09 20:38:00,66.8,58.6,30.09,WSW,244,0.0,0.0,75,0.00,,,0.00,Wunderground v.1.15,2013-06-10 00:38:00,
2013-06-09 20:44:00,66.2,58.4,30.10,WSW,244,0.0,0.0,76,0.00,,,0.00,Wunderground v.1.15,2013-06-10 00:44:00,
2013-06-09 20:49:00,65.8,58.7,30.10,WSW,244,0.0,0.0,78,0.00,,,0.00,Wunderground v.1.15,2013-06-10 00:49:00,
2013-06-09 20:57:00,64.9,58.2,30.10,WSW,244,0.0,0.0,79,0.00,,,0.00,Wunderground v.1.15,2013-06-10 00:57:00,
2013-06-09 21:02:00,64.5,58.2,30.10,WSW,244,0.0,0.0,80,0.00,,,0.00,Wunderground v.1.15,2013-06-10 01:02:00,
2013-06-09 21:07:00,64.0,58.1,30.10,WSW,244,0.0,0.0,81,0.00,,,0.00,Wunderground v.1.15,2013-06-10 01:07:00,
2013-06-09 21:12:00,63.6,57.7,30.11,WSW,244,0.0,0.0,81,0.00,,,0.00,Wunderground v.1.15,2013-06-10 01:12:00,
2013-06-09 21:18:00,63.2,57.6,30.11,WSW,244,0.0,0.0,82,0.00,,,0.00,Wunderground v.1.15,2013-06-10 01:18:00,
2013-06-09 21:24:00,62.9,57.7,30.11,WSW,244,0.0,0.0,83,0.00,,,0.00,Wunderground v.1.15,2013-06-10 01:24:00,
2013-06-09 21:29:00,62.5,57.6,30.11,WSW,244,0.0,0.0,84,0.00,,,0.00,Wunderground v.1.15,2013-06-10 01:29:00,
2013-06-09 21:36:00,62.0,57.4,30.11,WSW,244,0.0,0.0,85,0.00,,,0.00,Wunderground v.1.15,2013-06-10 01:36:00,
2013-06-09 21:42:00,61.7,57.1,30.12,WSW,244,0.0,0.0,85,0.00,,,0.00,Wunderground v.1.15,2013-06-10 01:42:00,
2013-06-09 21:47:00,61.4,57.2,30.12,WSW,244,0.0,0.0,86,0.00,,,0.00,Wunderground v.1.15,2013-06-10 01:47:00,
2013-06-09 21:53:00,61.1,56.9,30.13,WSW,244,0.0,0.0,86,0.00,,,0.00,Wunderground v.1.15,2013-06-10 01:53:00,
2013-06-09 21:59:00,60.9,57.0,30.13,WSW,244,0.0,0.0,87,0.00,,,0.00,Wunderground v.1.15,2013-06-10 01:59:00,
2013-06-09 22:06:00,60.6,56.7,30.13,WSW,244,0.0,0.0,87,0.00,,,0.00,Wunderground v.1.15,2013-06-10 02:06:00,
2013-06-09 22:12:00,60.4,56.5,30.13,WSW,244,0.0,0.0,87,0.00,,,0.00,Wunderground v.1.15,2013-06-10 02:12:00,
2013-06-09 22:17:00,60.2,56.3,30.14,WSW,244,0.0,0.0,87,0.00,,,0.00,Wunderground v.1.15,2013-06-10 02:17:00,
2013-06-09 22:23:00,59.9,56.0,30.14,WSW,244,0.0,0.0,87,0.00,,,0.00,Wunderground v.1.15,2013-06-10 02:23:00,
2013-06-09 22:28:00,59.7,55.8,30.14,WSW,244,0.0,0.0,87,0.00,,,0.00,Wunderground v.1.15,2013-06-10 02:28:00,
2013-06-09 22:34:00,59.5,55.9,30.14,WSW,244,0.0,0.0,88,0.00,,,0.00,Wunderground v.1.15,2013-06-10 02:34:00,
2013-06-09 22:41:00,59.1,55.5,30.14,WSW,244,0.0,0.0,88,0.00,,,0.00,Wunderground v.1.15,2013-06-10 02:41:00,
2013-06-09 22:47:00,59.0,55.4,30.14,WSW,244,0.0,0.0,88,0.00,,,0.00,Wunderground v.1.15,2013-06-10 02:47:00,
2013-06-09 22:53:00,59.0,55.4,30.14,WSW,244,0.0,0.0,88,0.00,,,0.00,Wunderground v.1.15,2013-06-10 02:53:00,
2013-06-09 22:59:00,58.8,55.3,30.14,WSW,244,0.0,0.0,88,0.00,,,0.00,Wunderground v.1.15,2013-06-10 02:59:00,
2013-06-09 23:04:00,58.6,55.1,30.13,WSW,244,0.0,0.0,88,0.00,,,0.00,Wunderground v.1.15,2013-06-10 03:04:00,
2013-06-09 23:11:00,58.4,54.9,30.13,WSW,244,0.0,0.0,88,0.00,,,0.00,Wunderground v.1.15,2013-06-10 03:11:00,
2013-06-09 23:17:00,58.3,54.8,30.14,WSW,244,0.0,0.0,88,0.00,,,0.00,Wunderground v.1.15,2013-06-10 03:17:00,
2013-06-09 23:22:00,58.2,54.7,30.14,WSW,244,0.0,0.0,88,0.00,,,0.00,Wunderground v.1.15,2013-06-10 03:22:00,
2013-06-09 23:28:00,58.0,54.5,30.14,WSW,244,0.0,0.0,88,0.00,,,0.00,Wunderground v.1.15,2013-06-10 03:28:00,
2013-06-09 23:34:00,57.9,54.4,30.14,WSW,244,0.0,0.0,88,0.00,,,0.00,Wunderground v.1.15,2013-06-10 03:34:00,
2013-06-09 23:39:00,57.8,54.3,30.14,WSW,244,0.0,0.0,88,0.00,,,0.00,Wunderground v.1.15,2013-06-10 03:39:00,
2013-06-09 23:46:00,57.6,54.1,30.14,WSW,244,0.0,0.0,88,0.00,,,0.00,Wunderground v.1.15,2013-06-10 03:46:00,
2013-06-09 23:52:00,57.5,54.0,30.14,WSW,244,0.0,0.0,88,0.00,,,0.00,Wunderground v.1.15,2013-06-10 03:52:00,
2013-06-09 23:57:00,57.4,53.9,30.14,WSW,244,0.0,0.0,88,0.00,,,0.00,Wunderground v.1.15,2013-06-10 03:57:00,